Weather History for Prestwick, United Kingdom

Change the Weather History Date:

Thursday, March 7, 2013

  Actual Average Record
Temperature  
Mean Temperature 46 °F -  
Max Temperature 50 °F 49 °F 62 °F (2001)
Min Temperature 41 °F 37 °F 30 °F (1999)
Degree Days  
Heating Degree Days 20    
Moisture  
Dew Point 40 °F    
Average Humidity 86    
Maximum Humidity 93    
Minimum Humidity 81    
Precipitation  
Precipitation 0.00 in - - ()
Sea Level Pressure  
Sea Level Pressure 29.52 in    
Wind  
Wind Speed 8 mph ()    
Max Wind Speed 13 mph    
Max Gust Speed 25 mph    
Visibility 4.7 miles    
Events Rain    
Averages and records for this station are not official NWS values.
T = Trace of Precipitation, MM = Missing Value Source: Averaged Metar Reports

Daily Weather History Graph

Daily Weather History Graph

Search for Another Location

Airport:

Trip Planner

Search our weather history database for the weather conditions in past years. The results will help you decide how hot, cold, wet, or windy it might be!

Date:

Astronomy

Mar. 07, 2013 Rise Set
Actual Time 6:53 AM GMT 6:05 PM GMT
Civil Twilight 6:17 AM GMT 6:42 PM GMT
Nautical Twilight 5:34 AM GMT 7:25 PM GMT
Astronomical Twilight 4:51 AM GMT 8:08 PM GMT
Moon 4:22 AM GMT (3/7) 12:59 PM GMT (3/7)
Length of Visible Light 12h 25m
Length of Day
11h 12m
Waning Crescent, 22% of the Moon is Illuminated
Mar 7
Waning Crescent
Mar 11
New
Mar 19
First Quarter
Mar 27
Full
Apr 3
Last Quarter

Hourly Weather History & Observations

Time (GMT) Temp. Windchill Dew Point Humidity Pressure Visibility Wind Dir Wind Speed Gust Speed Precip Events Conditions
12:50 AM 41.0 °F 35.2 °F 39.2 °F 93% 29.59 in 4.3 mi ENE 9.2 mph - N/A Rain Light Rain
1:50 AM 41.0 °F 36.4 °F 39.2 °F 93% 29.59 in 4.3 mi ENE 6.9 mph - N/A Rain Light Rain
2:50 AM 41.0 °F 35.8 °F 39.2 °F 93% 29.59 in 4.3 mi ENE 8.1 mph - N/A Rain Light Rain
3:50 AM 41.0 °F 35.2 °F 39.2 °F 93% 29.56 in 4.3 mi ENE 9.2 mph - N/A Rain Light Rain
4:50 AM 41.0 °F 35.8 °F 39.2 °F 93% 29.56 in 4.3 mi ENE 8.1 mph - N/A Rain Light Rain
5:50 AM 41.0 °F 34.3 °F 39.2 °F 93% 29.56 in 4.3 mi ENE 11.5 mph - N/A Rain Light Rain
6:20 AM 41.0 °F 34.7 °F 39.2 °F 93% 29.53 in 4.3 mi ENE 10.4 mph - N/A Rain Light Rain
6:50 AM 41.0 °F 34.7 °F 39.2 °F 93% 29.53 in 4.3 mi ENE 10.4 mph - N/A Rain Light Rain
7:20 AM 41.0 °F 35.2 °F 39.2 °F 93% 29.53 in 5.0 mi ENE 9.2 mph - N/A Rain Light Rain
7:50 AM 41.0 °F 35.2 °F 39.2 °F 93% 29.53 in 5.0 mi ENE 9.2 mph - N/A Rain Light Rain
8:20 AM 42.8 °F 38.6 °F 39.2 °F 87% 29.53 in 5.0 mi ENE 6.9 mph - N/A Rain Light Rain
8:50 AM 42.8 °F 37.0 °F 41.0 °F 93% 29.53 in 5.0 mi ENE 10.4 mph - N/A Rain Light Rain
9:20 AM 42.8 °F 37.5 °F 41.0 °F 93% 29.53 in 5.0 mi ENE 9.2 mph - N/A Rain Light Rain
9:50 AM 44.6 °F 42.2 °F 41.0 °F 87% 29.53 in 5.0 mi ENE 4.6 mph - N/A Rain Light Rain
10:20 AM 44.6 °F 42.2 °F 41.0 °F 87% 29.53 in 5.0 mi ENE 4.6 mph - N/A Rain Light Rain
10:50 AM 46.4 °F 44.3 °F 41.0 °F 81% 29.53 in 5.0 mi ENE 4.6 mph - N/A Rain Light Rain
11:20 AM 46.4 °F 43.5 °F 41.0 °F 81% 29.53 in 4.3 mi ENE 5.8 mph - N/A   Mostly Cloudy
11:50 AM 46.4 °F 41.9 °F 41.0 °F 81% 29.53 in 3.7 mi East 9.2 mph - N/A   Scattered Clouds
12:20 PM 46.4 °F 43.5 °F 42.8 °F 87% 29.53 in 3.7 mi East 5.8 mph - N/A   Scattered Clouds
12:50 PM 46.4 °F 43.5 °F 42.8 °F 87% 29.53 in 3.7 mi East 5.8 mph - N/A Rain Light Rain
1:20 PM 46.4 °F 42.9 °F 44.6 °F 93% 29.50 in 3.7 mi NE 6.9 mph - N/A Rain Light Rain
1:50 PM 48.2 °F - 44.6 °F 87% 29.50 in 5.0 mi ENE 9.2 mph - N/A   Mostly Cloudy
2:20 PM 50.0 °F - 44.6 °F 82% 29.50 in 5.0 mi NE 8.1 mph - N/A   Mostly Cloudy
2:50 PM 48.2 °F - 44.6 °F 87% 29.50 in 5.0 mi ENE 11.5 mph - N/A   Mostly Cloudy
3:20 PM 48.2 °F - 44.6 °F 87% 29.47 in 5.0 mi ENE 11.5 mph - N/A   Mostly Cloudy
3:50 PM 48.2 °F - 42.8 °F 82% 29.47 in 4.3 mi ENE 9.2 mph - N/A   Scattered Clouds
4:20 PM 48.2 °F - 42.8 °F 82% 29.47 in 4.3 mi ENE 11.5 mph - N/A   Scattered Clouds
4:50 PM 46.4 °F 40.7 °F 41.0 °F 81% 29.47 in 3.7 mi ENE 12.7 mph 25.3 mph N/A   Scattered Clouds
5:20 PM 46.4 °F 41.1 °F 41.0 °F 81% 29.47 in 3.7 mi ENE 11.5 mph - N/A   Scattered Clouds
5:50 PM 44.6 °F 41.4 °F 39.2 °F 81% 29.50 in 3.1 mi ENE 5.8 mph - N/A   Scattered Clouds
6:20 PM 44.6 °F 39.7 °F 39.2 °F 81% 29.50 in 3.1 mi ENE 9.2 mph - N/A   Scattered Clouds
6:50 PM 42.8 °F 37.0 °F 39.2 °F 87% 29.50 in 3.1 mi ENE 10.4 mph - N/A   Scattered Clouds
7:20 PM 42.8 °F 37.5 °F 37.4 °F 81% 29.50 in 5.0 mi ENE 9.2 mph - N/A   Scattered Clouds
7:50 PM 42.8 °F 38.6 °F 37.4 °F 81% 29.50 in 5.0 mi East 6.9 mph - N/A   Scattered Clouds
8:20 PM 42.8 °F 38.6 °F 37.4 °F 81% 29.50 in 6.2 mi ENE 6.9 mph - N/A   Scattered Clouds
8:50 PM 42.8 °F 36.6 °F 37.4 °F 81% 29.50 in 6.2 mi East 11.5 mph - N/A   Scattered Clouds
9:20 PM 42.8 °F 37.5 °F 37.4 °F 81% 29.50 in 6.2 mi East 9.2 mph 20.7 mph N/A   Scattered Clouds
9:50 PM 42.8 °F 38.6 °F 37.4 °F 81% 29.50 in 6.2 mi East 6.9 mph - N/A   Scattered Clouds
10:20 PM 42.8 °F 37.0 °F 37.4 °F 81% 29.50 in 6.2 mi ENE 10.4 mph - N/A   Scattered Clouds
10:50 PM 42.8 °F 37.5 °F 37.4 °F 81% 29.50 in 6.2 mi ENE 9.2 mph - N/A   Scattered Clouds
11:20 PM 42.8 °F 38.0 °F 37.4 °F 81% 29.50 in 6.2 mi ENE 8.1 mph 20.7 mph N/A   Scattered Clouds
11:50 PM 42.8 °F 38.0 °F 37.4 °F 81% 29.50 in 6.2 mi ENE 8.1 mph - N/A   Scattered Clouds